Date String (YYYY-MM-DD hh:mm:ss) UTC,Instrument flags,Ambient pressure (hPa),Sample flow (lpm),Bypass flow (lpm),Sample temperature (°C),Ambient temperature (°C),ASC tube jacket temperature (°C),LED temperature (°C),Box temperature (°C),Sample RH (%),Span deviation,Mass concentration (μg/m³),Mass concentration (μg/m³),Mass concentration (μg/m³)
DateTimeUTC,F1_M11,P_M11,Q1_M11,Q2_M11,T1_M11,T2_M11,T3_M11,T4_M11,T5_M11,U1_M11,ZSPAN_M11,X0_M11,X2_M11,X1_M11
2022-01-04 12:00:00,,0817.1,5.00,0.00,22.3,23.0,00.0,31.2,24.2,06.0,0000.0,0002.51,0000.49,0000.37
2022-01-04 12:01:00,,0817.1,5.00,0.00,22.3,22.8,00.0,31.2,24.2,05.8,0000.0,0002.53,0000.49,0000.37
2022-01-04 12:02:00,,0817.2,5.01,0.00,22.3,22.5,00.0,31.2,24.1,06.0,0000.0,0002.52,0000.48,0000.37
2022-01-04 12:03:00,,0817.1,4.99,0.00,22.3,22.3,00.0,31.2,24.1,05.9,0000.0,0002.63,0000.48,0000.37
2022-01-04 12:04:00,,0817.1,5.00,0.00,22.3,22.2,00.0,31.2,24.0,05.8,0000.0,0002.65,0000.48,0000.38
2022-01-04 12:05:00,,0817.2,4.98,0.00,22.3,22.1,00.0,31.2,24.0,05.9,0000.0,0002.68,0000.49,0000.38
2022-01-04 12:06:00,,0817.2,5.02,0.00,22.3,22.0,00.0,31.2,24.0,05.9,0000.0,0002.67,0000.48,0000.38
2022-01-04 12:07:00,,0817.2,4.99,0.00,22.3,21.9,00.0,31.3,24.0,05.9,0000.0,0002.47,0000.47,0000.38
2022-01-04 12:08:00,,0817.2,5.01,0.00,22.3,21.9,00.0,31.3,24.0,05.8,0000.0,0002.03,0000.45,0000.37
2022-01-04 12:09:00,,0817.4,4.99,0.00,22.3,21.8,00.0,31.3,24.0,05.7,0000.0,0002.03,0000.44,0000.37
2022-01-04 12:10:00,,0817.4,5.00,0.00,22.3,21.8,00.0,31.3,24.0,05.8,0000.0,0002.05,0000.44,0000.37
2022-01-04 12:11:00,,0817.5,4.99,0.00,22.3,21.7,00.0,31.3,24.0,05.8,0000.0,0002.05,0000.44,0000.37
2022-01-04 12:12:00,,0817.4,5.00,0.00,22.3,21.7,00.0,31.3,24.0,06.1,0000.0,0002.00,0000.42,0000.36
2022-01-04 12:13:00,,0817.4,5.01,0.00,22.3,21.7,00.0,31.3,24.0,06.0,0000.0,0001.98,0000.42,0000.37
2022-01-04 12:14:00,,0817.5,4.99,0.00,22.3,21.7,00.0,31.3,24.0,05.9,0000.0,0001.90,0000.43,0000.37
2022-01-04 12:15:00,,0817.5,5.01,0.00,22.3,21.6,00.0,31.3,23.9,05.8,0000.0,0001.85,0000.43,0000.37
2022-01-04 12:16:00,,0817.4,5.00,0.00,22.3,21.6,00.0,31.3,23.9,06.0,0000.0,0001.83,0000.43,0000.37
2022-01-04 12:17:00,,0817.4,5.00,0.00,22.2,21.6,00.0,31.3,23.9,06.0,0000.0,0001.84,0000.43,0000.37
2022-01-04 12:18:00,,0817.5,5.00,0.00,22.2,21.6,00.0,31.3,23.9,06.0,0000.0,0000.84,0000.44,0000.37
2022-01-04 12:19:00,,0817.6,5.01,0.00,22.2,21.6,00.0,31.3,23.9,06.1,0000.0,0000.62,0000.45,0000.37
2022-01-04 12:20:00,,0817.5,4.99,0.00,22.2,21.6,00.0,31.2,23.9,05.8,0000.0,0000.62,0000.47,0000.37
2022-01-04 12:21:00,,0817.6,5.01,0.00,22.2,21.6,00.0,31.2,23.9,05.7,0000.0,0000.62,0000.47,0000.37
2022-01-04 12:22:00,,0817.6,5.00,0.00,22.2,21.6,00.0,31.2,23.9,06.1,0000.0,0000.66,0000.49,0000.37
2022-01-04 12:23:00,,0817.6,4.99,0.00,22.2,21.5,00.0,31.2,23.9,05.7,0000.0,0000.66,0000.49,0000.36
2022-01-04 12:24:00,,0817.8,5.01,0.00,22.2,21.5,00.0,31.2,23.8,05.8,0000.0,0000.66,0000.49,0000.36
2022-01-04 12:25:00,,0817.8,4.98,0.00,22.2,21.5,00.0,31.2,23.8,06.0,0000.0,0000.62,0000.47,0000.36
2022-01-04 12:26:00,,0817.8,5.00,0.00,22.2,21.5,00.0,31.2,23.8,06.1,0000.0,0000.58,0000.45,0000.35
2022-01-04 12:27:00,,0817.9,5.00,0.00,22.2,21.5,00.0,31.2,23.8,06.0,0000.0,0000.55,0000.44,0000.35
2022-01-04 12:28:00,,0818.0,5.00,0.00,22.2,21.5,00.0,31.2,23.8,06.2,0000.0,0000.53,0000.43,0000.35
2022-01-04 12:29:00,,0817.9,5.00,0.00,22.2,21.5,00.0,31.2,23.8,06.3,0000.0,0000.70,0000.44,0000.34
2022-01-04 12:30:00,,0817.9,5.01,0.00,22.2,21.5,00.0,31.2,23.8,06.3,0000.0,0000.75,0000.44,0000.34
2022-01-04 12:31:00,,0817.9,4.99,0.00,22.2,21.5,00.0,31.2,23.8,06.1,0000.0,0000.73,0000.43,0000.34
2022-01-04 12:32:00,,0818.0,5.01,0.00,22.2,21.5,00.0,31.2,23.9,06.3,0000.0,0000.72,0000.42,0000.35
2022-01-04 12:33:00,,0818.0,4.99,0.00,22.2,21.5,00.0,31.2,23.8,06.6,0000.0,0000.73,0000.43,0000.35
2022-01-04 12:34:00,,0818.0,5.01,0.00,22.2,21.5,00.0,31.2,23.8,06.7,0000.0,0000.73,0000.42,0000.35
2022-01-04 12:35:00,,0818.0,5.02,0.00,22.2,21.5,00.0,31.2,23.9,06.7,0000.0,0000.84,0000.44,0000.36
2022-01-04 12:36:00,,0818.0,4.99,0.00,22.2,21.5,00.0,31.2,23.8,06.7,0000.0,0001.65,0000.45,0000.37
2022-01-04 12:37:00,,0818.0,5.02,0.00,22.2,21.5,00.0,31.2,23.8,06.6,0000.0,0001.69,0000.47,0000.38
2022-01-04 12:38:00,,0818.0,4.99,0.00,22.2,21.9,00.0,31.2,24.0,06.7,0000.0,0001.71,0000.48,0000.39
2022-01-04 12:39:00,,0818.1,5.00,0.00,22.3,22.7,00.0,31.3,24.2,06.7,0000.0,0001.73,0000.49,0000.40
2022-01-04 12:40:00,,0818.1,5.00,0.00,22.5,23.2,00.0,31.3,24.4,06.6,0000.0,0001.63,0000.50,0000.40
2022-01-04 12:41:00,,0818.3,4.99,0.00,22.6,23.1,00.0,31.3,24.5,06.4,0000.0,0002.55,0000.50,0000.41
2022-01-04 12:42:00,,0818.4,5.01,0.00,22.6,22.8,00.0,31.4,24.4,06.7,0000.0,0002.68,0000.52,0000.41
2022-01-04 12:43:00,,0818.4,4.99,0.00,22.6,22.6,00.0,31.4,24.4,07.1,0000.0,0002.72,0000.53,0000.42
2022-01-04 12:44:00,,0818.4,5.01,0.00,22.6,22.5,00.0,31.4,24.3,07.0,0000.0,0003.40,0000.54,0000.42
2022-01-04 12:45:00,,0818.4,4.98,0.00,22.5,22.3,00.0,31.4,24.2,06.7,0000.0,0003.54,0000.58,0000.43
2022-01-04 12:46:00,,0818.4,5.02,0.00,22.5,22.2,00.0,31.4,24.2,06.6,0000.0,0003.49,0000.61,0000.43
2022-01-04 12:47:00,,0818.4,4.99,0.00,22.5,22.1,00.0,31.4,24.2,06.3,0000.0,0002.82,0000.63,0000.44
2022-01-04 12:48:00,,0818.4,5.01,0.00,22.5,21.9,00.0,31.4,24.2,06.4,0000.0,0002.84,0000.65,0000.44
2022-01-04 12:49:00,,0818.4,5.00,0.00,22.4,21.8,00.0,31.4,24.1,06.5,0000.0,0002.90,0000.68,0000.44
2022-01-04 12:50:00,,0818.4,4.99,0.00,22.4,21.7,00.0,31.4,24.1,06.7,0000.0,0002.93,0000.69,0000.45
2022-01-04 12:51:00,,0818.4,5.00,0.00,22.4,21.6,00.0,31.4,24.0,06.6,0000.0,0002.92,0000.69,0000.46
2022-01-04 12:52:00,,0818.6,5.00,0.00,22.4,21.6,00.0,31.4,24.0,06.4,0000.0,0002.04,0000.69,0000.47
2022-01-04 12:53:00,,0818.7,4.99,0.00,22.3,21.5,00.0,31.4,23.9,06.8,0000.0,0001.85,0000.69,0000.47
2022-01-04 12:54:00,,0818.8,5.00,0.00,22.3,21.5,00.0,31.4,23.9,06.9,0000.0,0002.54,0000.67,0000.46
2022-01-04 12:55:00,,0818.8,4.99,0.00,22.3,21.4,00.0,31.4,23.9,07.0,0000.0,0002.19,0000.64,0000.45
2022-01-04 12:56:00,,0818.7,5.00,0.00,22.2,21.3,00.0,31.3,23.8,06.9,0000.0,0002.04,0000.63,0000.44
2022-01-04 12:57:00,,0818.7,5.00,0.00,22.2,21.3,00.0,31.3,23.8,06.9,0000.0,0001.94,0000.60,0000.44
2022-01-04 12:58:00,,0818.7,5.00,0.00,22.2,21.3,00.0,31.3,23.8,06.9,0000.0,0001.86,0000.58,0000.44
2022-01-04 12:59:00,,0818.7,5.01,0.00,22.2,21.3,00.0,31.3,23.7,06.9,0000.0,0001.83,0000.57,0000.45
